| time (UTC) | temp F | wind direction | speed MPH | gust MPH | rain 1hr in | rain 24hr in | rain mn in | humidity % | barometer mb |
| 20260902170835 | 90 | 245 | 6.0 | 9.0 | 0.00 | 0.00 | 0.00 | 64 | 1017.5 |
| 20260902170330 | 91 | 245 | 7.0 | 10.0 | 0.00 | 0.00 | 0.00 | 67 | 1017.5 |
| 20260902165826 | 91 | 249 | 7.0 | 8.0 | 0.00 | 0.00 | 0.00 | 66 | 1017.7 |
| 20260902165325 | 90 | 233 | 7.0 | 8.0 | 0.00 | 0.00 | 0.00 | 68 | 1017.6 |
| 20260902164820 | 90 | 213 | 9.0 | 14.0 | 0.00 | 0.00 | 0.00 | 64 | 1017.7 |
| 20260902164315 | 90 | 231 | 5.0 | 7.0 | 0.00 | 0.00 | 0.00 | 68 | 1017.8 |
| 20260902163814 | 90 | 235 | 6.0 | 8.0 | 0.00 | 0.00 | 0.00 | 70 | 1017.7 |
| 20260902163309 | 90 | 220 | 5.0 | 10.0 | 0.00 | 0.00 | 0.00 | 69 | 1017.9 |
| 20260902162807 | 90 | 250 | 6.0 | 9.0 | 0.00 | 0.00 | 0.00 | 70 | 1018.0 |
| 20260902162306 | 89 | 256 | 5.0 | 7.0 | 0.00 | 0.00 | 0.00 | 70 | 1018.0 |
| 20260902161756 | 87 | 227 | 4.0 | 7.0 | 0.00 | 0.00 | 0.00 | 75 | 1018.1 |
| 20260902161252 | 87 | 215 | 5.0 | 7.0 | 0.00 | 0.00 | 0.00 | 73 | 1018.1 |
| 20260902160748 | 87 | 243 | 5.0 | 8.0 | 0.00 | 0.00 | 0.00 | 73 | 1017.9 |
| 20260902160243 | 88 | 208 | 5.0 | 6.0 | 0.00 | 0.00 | 0.00 | 73 | 1017.9 |
| 20260902155741 | 87 | 227 | 4.0 | 7.0 | 0.00 | 0.00 | 0.00 | 72 | 1018.1 |
| 20260902155240 | 88 | 230 | 5.0 | 10.0 | 0.00 | 0.00 | 0.00 | 72 | 1017.9 |
| 20260902154735 | 87 | 218 | 5.0 | 8.0 | 0.00 | 0.00 | 0.00 | 74 | 1017.9 |
| 20260902154230 | 87 | 209 | 7.0 | 9.0 | 0.00 | 0.00 | 0.00 | 72 | 1017.9 |
| 20260902153724 | 87 | 235 | 5.0 | 8.0 | 0.00 | 0.00 | 0.00 | 73 | 1017.9 |
| 20260902153224 | 86 | 239 | 4.0 | 7.0 | 0.00 | 0.00 | 0.00 | 74 | 1018.0 |
| 20260902152720 | 87 | 250 | 5.0 | 8.0 | 0.00 | 0.00 | 0.00 | 74 | 1018.0 |
| 20260902152215 | 86 | 244 | 6.0 | 8.0 | 0.00 | 0.00 | 0.00 | 75 | 1018.0 |
| 20260902151711 | 85 | 228 | 4.0 | 7.0 | 0.00 | 0.00 | 0.00 | 76 | 1017.9 |
| 20260902151206 | 86 | 226 | 6.0 | 7.0 | 0.00 | 0.00 | 0.00 | 75 | 1017.9 |
| 20260902150701 | 85 | 258 | 6.0 | 9.0 | 0.00 | 0.00 | 0.00 | 76 | 1018.0 |
| 20260902150157 | 86 | 251 | 5.0 | 6.0 | 0.00 | 0.00 | 0.00 | 75 | 1017.9 |
| 20260902145655 | 85 | 245 | 7.0 | 8.0 | 0.00 | 0.00 | 0.00 | 75 | 1017.9 |
| 20260902145155 | 84 | 243 | 5.0 | 7.0 | 0.00 | 0.00 | 0.00 | 77 | 1017.8 |
| 20260902144652 | 84 | 240 | 6.0 | 8.0 | 0.00 | 0.00 | 0.00 | 77 | 1017.9 |
| 20260902144147 | 84 | 247 | 5.0 | 8.0 | 0.00 | 0.00 | 0.00 | 79 | 1017.7 |
| 20260902143642 | 84 | 231 | 5.0 | 7.0 | 0.00 | 0.00 | 0.00 | 79 | 1017.7 |
| 20260902143137 | 84 | 239 | 4.0 | 7.0 | 0.00 | 0.00 | 0.00 | 78 | 1017.6 |
| 20260902142633 | 83 | 222 | 5.0 | 8.0 | 0.00 | 0.00 | 0.00 | 79 | 1017.6 |
| 20260902142129 | 83 | 258 | 7.0 | 9.0 | 0.00 | 0.00 | 0.00 | 81 | 1017.7 |
| 20260902141628 | 83 | 219 | 4.0 | 8.0 | 0.00 | 0.00 | 0.00 | 82 | 1017.6 |
| 20260902141124 | 83 | 250 | 5.0 | 7.0 | 0.00 | 0.00 | 0.00 | 81 | 1017.5 |
| 20260902140619 | 82 | 250 | 4.0 | 7.0 | 0.00 | 0.00 | 0.00 | 83 | 1017.7 |
| 20260902140114 | 82 | 251 | 6.0 | 8.0 | 0.00 | 0.00 | 0.00 | 83 | 1017.7 |
| 20260902135613 | 82 | 214 | 7.0 | 9.0 | 0.00 | 0.00 | 0.00 | 82 | 1017.5 |
| 20260902135108 | 81 | 237 | 3.0 | 6.0 | 0.00 | 0.00 | 0.00 | 84 | 1017.4 |
| 20260902134604 | 81 | 247 | 6.0 | 7.0 | 0.00 | 0.00 | 0.00 | 85 | 1017.5 |
| 20260902134104 | 81 | 236 | 5.0 | 8.0 | 0.00 | 0.00 | 0.00 | 85 | 1017.5 |
| 20260902133558 | 80 | 229 | 3.0 | 8.0 | 0.00 | 0.00 | 0.00 | 87 | 1017.6 |
| 20260902133053 | 80 | 218 | 3.0 | 7.0 | 0.00 | 0.00 | 0.00 | 88 | 1017.4 |
| 20260902132548 | 80 | 240 | 4.0 | 5.0 | 0.00 | 0.00 | 0.00 | 88 | 1017.4 |
| 20260902132044 | 79 | 226 | 4.0 | 7.0 | 0.00 | 0.00 | 0.00 | 89 | 1017.4 |
| 20260902131540 | 79 | 226 | 5.0 | 7.0 | 0.00 | 0.00 | 0.00 | 90 | 1017.5 |
| 20260902131040 | 78 | 193 | 6.0 | 7.0 | 0.00 | 0.00 | 0.00 | 90 | 1017.6 |
| 20260902130536 | 78 | 198 | 4.0 | 7.0 | 0.00 | 0.00 | 0.00 | 91 | 1017.7 |
| 20260902130031 | 77 | 237 | 5.0 | 7.0 | 0.00 | 0.00 | 0.00 | 92 | 1017.5 |
| 20260902125527 | 77 | 215 | 5.0 | 6.0 | 0.00 | 0.00 | 0.00 | 93 | 1017.6 |
| 20260902125022 | 77 | 236 | 5.0 | 7.0 | 0.00 | 0.00 | 0.00 | 94 | 1017.5 |
| 20260902124519 | 76 | 229 | 5.0 | 7.0 | 0.00 | 0.00 | 0.00 | 94 | 1017.4 |
| 20260902124019 | 76 | 212 | 7.0 | 8.0 | 0.00 | 0.00 | 0.00 | 94 | 1017.5 |
| 20260902123515 | 76 | 216 | 6.0 | 7.0 | 0.00 | 0.00 | 0.00 | 95 | 1017.5 |
| 20260902123014 | 75 | 245 | 4.0 | 6.0 | 0.00 | 0.00 | 0.00 | 96 | 1017.6 |
| 20260902122509 | 75 | 238 | 5.0 | 6.0 | 0.00 | 0.00 | 0.00 | 96 | 1017.5 |
| 20260902122004 | 75 | 231 | 4.0 | 6.0 | 0.00 | 0.00 | 0.00 | 96 | 1017.6 |
| 20260902121459 | 75 | 217 | 5.0 | 5.0 | 0.00 | 0.00 | 0.00 | 97 | 1017.5 |
| 20260902120954 | 75 | 235 | 3.0 | 3.0 | 0.00 | 0.00 | 0.00 | 97 | 1017.6 |
| 20260902120451 | 74 | 227 | 3.0 | 6.0 | 0.00 | 0.00 | 0.00 | 97 | 1017.6 |
| 20260902115950 | 74 | 234 | 3.0 | 6.0 | 0.00 | 0.00 | 0.00 | 98 | 1017.7 |
| 20260902115446 | 74 | 233 | 3.0 | 5.0 | 0.00 | 0.00 | 0.00 | 98 | 1017.5 |
| 20260902114942 | 74 | 214 | 5.0 | 5.0 | 0.00 | 0.00 | 0.00 | 98 | 1017.5 |
| 20260902114438 | 73 | 229 | 3.0 | 5.0 | 0.00 | 0.00 | 0.00 | 98 | 1017.4 |
| 20260902113933 | 73 | 229 | 3.0 | 5.0 | 0.00 | 0.00 | 0.00 | 98 | 1017.3 |
| 20260902113429 | 73 | 208 | 4.0 | 5.0 | 0.00 | 0.00 | 0.00 | 98 | 1017.4 |
| 20260902112928 | 73 | 229 | 3.0 | 5.0 | 0.00 | 0.00 | 0.00 | 98 | 1017.4 |
| 20260902112424 | 74 | 221 | 3.0 | 3.0 | 0.00 | 0.00 | 0.00 | 98 | 1017.3 |
| 20260902111920 | 73 | 231 | 2.0 | 3.0 | 0.00 | 0.00 | 0.00 | 98 | 1017.2 |
| 20260902111416 | 73 | 235 | 2.0 | 3.0 | 0.00 | 0.00 | 0.00 | 98 | 1017.3 |
| 20260902110912 | 73 | 238 | 2.0 | 3.0 | 0.00 | 0.00 | 0.00 | 98 | 1017.3 |
| 20260902110408 | 73 | 234 | 2.0 | 3.0 | 0.00 | 0.00 | 0.00 | 98 | 1017.3 |
| 20260902105908 | 73 | 229 | 2.0 | 5.0 | 0.00 | 0.00 | 0.00 | 98 | 1017.5 |
| 20260902105403 | 73 | 237 | 4.0 | 6.0 | 0.00 | 0.00 | 0.00 | 99 | 1017.4 |
| 20260902104857 | 73 | 223 | 4.0 | 6.0 | 0.00 | 0.00 | 0.00 | 99 | 1017.4 |
| 20260902104354 | 73 | 223 | 5.0 | 6.0 | 0.00 | 0.00 | 0.00 | 99 | 1017.3 |
| 20260902103853 | 73 | 217 | 4.0 | 5.0 | 0.00 | 0.00 | 0.00 | 98 | 1017.3 |
| 20260902103349 | 73 | 211 | 3.0 | 5.0 | 0.00 | 0.00 | 0.00 | 98 | 1017.2 |
| 20260902102843 | 73 | 229 | 3.0 | 5.0 | 0.00 | 0.00 | 0.00 | 98 | 1017.2 |
| 20260902102341 | 73 | 218 | 3.0 | 3.0 | 0.00 | 0.00 | 0.00 | 98 | 1017.1 |
| 20260902101836 | 73 | 221 | 3.0 | 5.0 | 0.00 | 0.00 | 0.00 | 98 | 1017.1 |
| 20260902101330 | 73 | 230 | 3.0 | 5.0 | 0.00 | 0.00 | 0.00 | 98 | 1017.1 |
| 20260902100825 | 73 | 218 | 4.0 | 5.0 | 0.00 | 0.00 | 0.00 | 98 | 1017.3 |
| 20260902100324 | 73 | 227 | 1.0 | 2.0 | 0.00 | 0.00 | 0.00 | 98 | 1017.4 |
| 20260902095819 | 73 | 230 | 2.0 | 2.0 | 0.00 | 0.00 | 0.00 | 98 | 1017.3 |
| 20260902095314 | 73 | 218 | 3.0 | 5.0 | 0.00 | 0.00 | 0.00 | 98 | 1017.4 |
| 20260902094808 | 73 | 220 | 3.0 | 3.0 | 0.00 | 0.00 | 0.00 | 98 | 1017.2 |
| 20260902094305 | 73 | 220 | 3.0 | 3.0 | 0.00 | 0.00 | 0.00 | 98 | 1017.3 |
| 20260902093804 | 73 | 225 | 2.0 | 2.0 | 0.00 | 0.00 | 0.00 | 98 | 1017.2 |
| 20260902093259 | 73 | 224 | 2.0 | 2.0 | 0.00 | 0.00 | 0.00 | 98 | 1017.1 |
| 20260902092758 | 73 | 241 | 2.0 | 2.0 | 0.00 | 0.00 | 0.00 | 98 | 1017.0 |
| 20260902092254 | 73 | 221 | 3.0 | 3.0 | 0.00 | 0.00 | 0.00 | 98 | 1017.0 |
| 20260902091753 | 74 | 219 | 2.0 | 3.0 | 0.00 | 0.00 | 0.00 | 98 | 1017.2 |
| 20260902091249 | 74 | 215 | 3.0 | 3.0 | 0.00 | 0.00 | 0.00 | 99 | 1017.2 |
| 20260902090746 | 74 | 224 | 2.0 | 2.0 | 0.00 | 0.00 | 0.00 | 99 | 1017.1 |
| 20260902090245 | 73 | 222 | 2.0 | 2.0 | 0.00 | 0.00 | 0.00 | 99 | 1017.1 |
| 20260902085744 | 73 | 215 | 1.0 | 2.0 | 0.00 | 0.00 | 0.00 | 98 | 1017.2 |
| 20260902085240 | 73 | 216 | 2.0 | 2.0 | 0.00 | 0.00 | 0.00 | 98 | 1017.3 |
| 20260902084736 | 74 | 219 | 3.0 | 3.0 | 0.00 | 0.00 | 0.00 | 98 | 1016.9 |
| 20260902084232 | 74 | 215 | 3.0 | 3.0 | 0.00 | 0.00 | 0.00 | 98 | 1017.1 |
| 20260902083731 | 74 | 221 | 3.0 | 3.0 | 0.00 | 0.00 | 0.00 | 98 | 1017.1 |
| 20260902083226 | 74 | 215 | 3.0 | 3.0 | 0.00 | 0.00 | 0.00 | 98 | 1017.0 |
| 20260902082721 | 74 | 213 | 2.0 | 2.0 | 0.00 | 0.00 | 0.00 | 98 | 1017.0 |
| 20260902082218 | 74 | 218 | 1.0 | 1.0 | 0.00 | 0.00 | 0.00 | 98 | 1017.2 |
| 20260902081714 | 74 | 218 | 2.0 | 2.0 | 0.00 | 0.00 | 0.00 | 98 | 1016.8 |
| 20260902081209 | 74 | 217 | 2.0 | 2.0 | 0.00 | 0.00 | 0.00 | 98 | 1016.9 |
| 20260902080704 | 74 | 220 | 0.0 | 0.0 | 0.00 | 0.00 | 0.00 | 98 | 1016.9 |
| 20260902080201 | 74 | 224 | 0.0 | 0.0 | 0.00 | 0.00 | 0.00 | 98 | 1016.8 |
| 20260902075700 | 74 | 234 | 0.0 | 0.0 | 0.00 | 0.00 | 0.00 | 98 | 1016.7 |
| 20260902075156 | 74 | 226 | 0.0 | 0.0 | 0.00 | 0.00 | 0.00 | 98 | 1016.8 |
| 20260902074656 | 75 | 222 | 2.0 | 2.0 | 0.00 | 0.00 | 0.00 | 98 | 1016.5 |
| 20260902074152 | 75 | 218 | 3.0 | 3.0 | 0.00 | 0.00 | 0.00 | 98 | 1016.6 |
| 20260902073647 | 75 | 214 | 3.0 | 5.0 | 0.00 | 0.00 | 0.00 | 98 | 1016.6 |
| 20260902073143 | 75 | 216 | 3.0 | 3.0 | 0.00 | 0.00 | 0.00 | 98 | 1016.5 |
| 20260902072639 | 75 | 223 | 2.0 | 3.0 | 0.00 | 0.00 | 0.00 | 98 | 1016.5 |
| 20260902072135 | 75 | 218 | 3.0 | 3.0 | 0.00 | 0.00 | 0.00 | 99 | 1016.5 |
| 20260902071631 | 74 | 228 | 3.0 | 3.0 | 0.00 | 0.00 | 0.00 | 99 | 1016.3 |
| 20260902071126 | 74 | 217 | 3.0 | 3.0 | 0.00 | 0.00 | 0.00 | 99 | 1016.5 |
| 20260902070622 | 74 | 216 | 2.0 | 3.0 | 0.00 | 0.00 | 0.00 | 99 | 1016.4 |
| 20260902070122 | 74 | 222 | 3.0 | 3.0 | 0.00 | 0.00 | 0.00 | 99 | 1016.5 |
| 20260902065620 | 74 | 220 | 3.0 | 3.0 | 0.00 | 0.00 | 0.00 | 99 | 1016.4 |
| 20260902065117 | 74 | 216 | 3.0 | 3.0 | 0.00 | 0.00 | 0.00 | 99 | 1016.5 |
| 20260902064612 | 74 | 216 | 2.0 | 3.0 | 0.00 | 0.00 | 0.00 | 99 | 1016.4 |
| 20260902064107 | 73 | 211 | 2.0 | 2.0 | 0.00 | 0.00 | 0.00 | 99 | 1016.6 |
| 20260902063602 | 73 | 211 | 2.0 | 2.0 | 0.00 | 0.00 | 0.00 | 99 | 1016.4 |
| 20260902063057 | 73 | 215 | 2.0 | 2.0 | 0.00 | 0.00 | 0.00 | 99 | 1016.6 |
| 20260902062555 | 73 | 216 | 2.0 | 2.0 | 0.00 | 0.00 | 0.00 | 99 | 1016.6 |
| 20260902062052 | 73 | 217 | 2.0 | 2.0 | 0.00 | 0.00 | 0.00 | 99 | 1016.8 |
| 20260902061551 | 73 | 218 | 1.0 | 2.0 | 0.00 | 0.00 | 0.00 | 99 | 1016.7 |
| 20260902061047 | 74 | 217 | 1.0 | 1.0 | 0.00 | 0.00 | 0.00 | 99 | 1016.8 |
| 20260902060543 | 74 | 218 | 1.0 | 2.0 | 0.00 | 0.00 | 0.00 | 99 | 1016.9 |
| 20260902060039 | 74 | 214 | 1.0 | 2.0 | 0.00 | 0.00 | 0.00 | 99 | 1016.8 |
| 20260902055535 | 74 | 215 | 1.0 | 2.0 | 0.00 | 0.00 | 0.00 | 99 | 1016.9 |
| 20260902055030 | 74 | 213 | 1.0 | 2.0 | 0.00 | 0.00 | 0.00 | 99 | 1016.9 |
| 20260902054525 | 73 | 218 | 1.0 | 2.0 | 0.00 | 0.00 | 0.00 | 99 | 1017.0 |
| 20260902054021 | 73 | 213 | 0.0 | 0.0 | 0.00 | 0.00 | 0.00 | 99 | 1016.9 |
| 20260902053516 | 71 | 223 | 0.0 | 0.0 | 0.00 | 0.00 | 0.00 | 99 | 1016.9 |
| 20260902053016 | 73 | 216 | 0.0 | 0.0 | 0.00 | 0.00 | 0.00 | 99 | 1016.9 |
| 20260902052509 | 72 | 214 | 0.0 | 0.0 | 0.00 | 0.00 | 0.00 | 99 | 1017.2 |
| 20260902052000 | 71 | 217 | 0.0 | 0.0 | 0.00 | 0.00 | 0.00 | 99 | 1017.1 |
| 20260902051459 | 71 | 226 | 0.0 | 0.0 | 0.00 | 0.00 | 0.00 | 99 | 1017.0 |
| 20260902050958 | 71 | 226 | 0.0 | 0.0 | 0.00 | 0.00 | 0.00 | 98 | 1017.0 |
| 20260902050453 | 71 | 226 | 1.0 | 1.0 | 0.00 | 0.00 | 0.00 | 98 | 1017.2 |
| 20260902045948 | 71 | 226 | 1.0 | 1.0 | 0.00 | 0.00 | 0.00 | 98 | 1017.0 |
| 20260902045443 | 71 | 226 | 1.0 | 1.0 | 0.00 | 0.00 | 0.00 | 98 | 1017.0 |
| 20260902044939 | 73 | 226 | 0.0 | 0.0 | 0.00 | 0.00 | 0.00 | 98 | 1017.0 |
| 20260902044429 | 73 | 226 | 0.0 | 0.0 | 0.00 | 0.00 | 0.00 | 98 | 1016.8 |
| 20260902043925 | 73 | 226 | 0.0 | 0.0 | 0.00 | 0.00 | 0.00 | 98 | 1016.9 |
| 20260902043419 | 74 | 226 | 0.0 | 0.0 | 0.00 | 0.00 | 0.00 | 98 | 1016.9 |
| 20260902042914 | 74 | 226 | 0.0 | 0.0 | 0.00 | 0.00 | 0.00 | 98 | 1016.9 |
| 20260902042414 | 74 | 226 | 0.0 | 0.0 | 0.00 | 0.00 | 0.00 | 98 | 1016.9 |
| 20260902041909 | 74 | 226 | 0.0 | 0.0 | 0.00 | 0.00 | 0.00 | 97 | 1017.0 |
| 20260902041403 | 74 | 226 | 0.0 | 0.0 | 0.00 | 0.00 | 0.00 | 97 | 1016.8 |
| 20260902040902 | 75 | 226 | 0.0 | 0.0 | 0.00 | 0.00 | 0.00 | 97 | 1016.8 |
| 20260902040358 | 75 | 226 | 0.0 | 0.0 | 0.00 | 0.00 | 0.00 | 97 | 1016.7 |
| 20260902035857 | 75 | 226 | 0.0 | 0.0 | 0.00 | 0.02 | 0.02 | 97 | 1016.8 |
| 20260902035352 | 75 | 226 | 0.0 | 0.0 | 0.00 | 0.02 | 0.02 | 97 | 1016.6 |
| 20260902034851 | 75 | 226 | 0.0 | 0.0 | 0.00 | 0.02 | 0.02 | 97 | 1016.6 |
| 20260902034346 | 75 | 226 | 0.0 | 0.0 | 0.00 | 0.02 | 0.02 | 96 | 1016.7 |
| 20260902033844 | 75 | 220 | 0.0 | 0.0 | 0.00 | 0.02 | 0.02 | 96 | 1016.5 |
| 20260902033339 | 75 | 220 | 0.0 | 0.0 | 0.00 | 0.02 | 0.02 | 96 | 1016.3 |
| 20260902032838 | 77 | 219 | 0.0 | 0.0 | 0.00 | 0.02 | 0.02 | 96 | 1016.3 |
| 20260902032339 | 77 | 210 | 0.0 | 1.0 | 0.00 | 0.02 | 0.02 | 96 | 1016.3 |
| 20260902031833 | 76 | 212 | 1.0 | 2.0 | 0.00 | 0.02 | 0.02 | 95 | 1016.1 |
| 20260902031330 | 75 | 211 | 1.0 | 2.0 | 0.00 | 0.02 | 0.02 | 95 | 1016.1 |
| 20260902030825 | 74 | 214 | 1.0 | 2.0 | 0.00 | 0.02 | 0.02 | 95 | 1016.0 |
| 20260902030319 | 74 | 202 | 0.0 | 1.0 | 0.00 | 0.02 | 0.02 | 95 | 1015.9 |
| 20260902025818 | 74 | 221 | 2.0 | 2.0 | 0.00 | 0.02 | 0.02 | 95 | 1016.0 |
| 20260902025314 | 75 | 228 | 3.0 | 3.0 | 0.00 | 0.02 | 0.02 | 94 | 1016.2 |
| 20260902024808 | 74 | 201 | 1.0 | 2.0 | 0.00 | 0.02 | 0.02 | 96 | 1016.1 |
| 20260902024304 | 74 | 211 | 1.0 | 1.0 | 0.00 | 0.02 | 0.02 | 95 | 1016.5 |
| 20260902023759 | 74 | 212 | 1.0 | 1.0 | 0.00 | 0.02 | 0.02 | 96 | 1016.5 |
| 20260902023255 | 74 | 207 | 1.0 | 1.0 | 0.00 | 0.02 | 0.02 | 95 | 1016.5 |
| 20260902022754 | 74 | 228 | 0.0 | 1.0 | 0.00 | 0.02 | 0.02 | 94 | 1016.7 |
| 20260902022249 | 75 | 226 | 1.0 | 1.0 | 0.00 | 0.02 | 0.02 | 94 | 1016.8 |
| 20260902021745 | 75 | 210 | 0.0 | 0.0 | 0.00 | 0.02 | 0.02 | 94 | 1016.7 |
| 20260902021245 | 76 | 210 | 0.0 | 0.0 | 0.00 | 0.02 | 0.02 | 92 | 1016.8 |
| 20260902020741 | 77 | 210 | 0.0 | 0.0 | 0.00 | 0.02 | 0.02 | 91 | 1016.9 |
| 20260902020237 | 77 | 210 | 0.0 | 0.0 | 0.00 | 0.02 | 0.02 | 89 | 1016.8 |
| 20260902015732 | 76 | 210 | 0.0 | 0.0 | 0.00 | 0.02 | 0.02 | 91 | 1016.8 |
| 20260902015229 | 76 | 191 | 0.0 | 0.0 | 0.00 | 0.02 | 0.02 | 93 | 1017.1 |
| 20260902014724 | 76 | 191 | 0.0 | 0.0 | 0.00 | 0.02 | 0.02 | 93 | 1017.0 |
| 20260902014220 | 76 | 191 | 0.0 | 0.0 | 0.00 | 0.02 | 0.02 | 94 | 1017.1 |
| 20260902013718 | 76 | 184 | 0.0 | 1.0 | 0.00 | 0.02 | 0.02 | 94 | 1016.8 |
| 20260902013214 | 76 | 191 | 0.0 | 0.0 | 0.00 | 0.02 | 0.02 | 95 | 1016.9 |
| 20260902012709 | 76 | 167 | 0.0 | 0.0 | 0.00 | 0.02 | 0.02 | 95 | 1017.0 |
| 20260902012200 | 76 | 167 | 0.0 | 0.0 | 0.00 | 0.02 | 0.02 | 95 | 1017.0 |
| 20260902011655 | 77 | 167 | 0.0 | 0.0 | 0.00 | 0.02 | 0.02 | 95 | 1016.6 |
| 20260902011154 | 77 | 164 | 0.0 | 1.0 | 0.00 | 0.02 | 0.02 | 95 | 1016.7 |
| 20260902010654 | 77 | 176 | 0.0 | 0.0 | 0.00 | 0.02 | 0.02 | 95 | 1016.6 |
| 20260902010150 | 77 | 174 | 0.0 | 0.0 | 0.00 | 0.02 | 0.02 | 95 | 1016.6 |
| 20260902005648 | 77 | 218 | 0.0 | 0.0 | 0.00 | 0.02 | 0.02 | 94 | 1016.4 |
| 20260902005144 | 78 | 238 | 0.0 | 0.0 | 0.00 | 0.02 | 0.02 | 94 | 1016.5 |
| 20260902004643 | 78 | 222 | 0.0 | 0.0 | 0.00 | 0.02 | 0.02 | 94 | 1016.6 |
| 20260902004138 | 78 | 210 | 0.0 | 1.0 | 0.00 | 0.02 | 0.02 | 94 | 1016.6 |
| 20260902003634 | 78 | 236 | 0.0 | 0.0 | 0.00 | 0.02 | 0.02 | 94 | 1016.6 |
| 20260902003129 | 78 | 246 | 0.0 | 0.0 | 0.00 | 0.02 | 0.02 | 93 | 1016.5 |
| 20260902002625 | 78 | 231 | 0.0 | 0.0 | 0.00 | 0.02 | 0.02 | 93 | 1016.5 |
| 20260902002119 | 79 | 214 | 0.0 | 0.0 | 0.00 | 0.02 | 0.02 | 93 | 1016.3 |
| 20260902001614 | 79 | 224 | 0.0 | 0.0 | 0.00 | 0.02 | 0.02 | 92 | 1016.7 |
| 20260902001109 | 79 | 226 | 0.0 | 0.0 | 0.00 | 0.02 | 0.02 | 91 | 1016.8 |
| 20260902000604 | 80 | 235 | 0.0 | 1.0 | 0.00 | 0.02 | 0.02 | 91 | 1017.0 |
| 20260902000059 | 80 | 270 | 3.0 | 3.0 | 0.00 | 0.02 | 0.02 | 90 | 1016.8 |
| 20260901235559 | 80 | 277 | 2.0 | 2.0 | 0.00 | 0.02 | 0.02 | 91 | 1017.1 |
| 20260901235055 | 80 | 235 | 0.0 | 1.0 | 0.00 | 0.02 | 0.02 | 91 | 1016.7 |
| 20260901234553 | 80 | 248 | 2.0 | 3.0 | 0.00 | 0.02 | 0.02 | 91 | 1016.7 |
| 20260901234049 | 80 | 271 | 3.0 | 3.0 | 0.00 | 0.02 | 0.02 | 89 | 1017.0 |
| 20260901233548 | 80 | 218 | 4.0 | 6.0 | 0.00 | 0.02 | 0.02 | 89 | 1016.5 |
| 20260901233045 | 80 | 248 | 2.0 | 3.0 | 0.00 | 0.02 | 0.02 | 90 | 1016.6 |
| 20260901232540 | 80 | 241 | 5.0 | 8.0 | 0.00 | 0.02 | 0.02 | 89 | 1016.5 |
| 20260901232035 | 80 | 233 | 1.0 | 1.0 | 0.00 | 0.02 | 0.02 | 90 | 1016.6 |
| 20260901231531 | 80 | 251 | 2.0 | 2.0 | 0.00 | 0.02 | 0.02 | 89 | 1016.6 |
| 20260901231028 | 80 | 242 | 2.0 | 3.0 | 0.00 | 0.02 | 0.02 | 89 | 1016.9 |
| 20260901230528 | 80 | 262 | 1.0 | 2.0 | 0.00 | 0.02 | 0.02 | 88 | 1016.9 |
| 20260901230023 | 80 | 247 | 3.0 | 6.0 | 0.00 | 0.02 | 0.02 | 87 | 1016.7 |
| 20260901225518 | 80 | 242 | 3.0 | 5.0 | 0.00 | 0.02 | 0.02 | 87 | 1016.4 |
| 20260901225012 | 80 | 238 | 4.0 | 6.0 | 0.00 | 0.02 | 0.02 | 90 | 1016.5 |
| 20260901224508 | 80 | 213 | 9.0 | 13.0 | 0.00 | 0.02 | 0.02 | 89 | 1016.2 |
| 20260901224004 | 79 | 217 | 8.0 | 8.0 | 0.00 | 0.02 | 0.02 | 91 | 1016.3 |
| 20260901223459 | 79 | 237 | 9.0 | 9.0 | 0.00 | 0.02 | 0.02 | 91 | 1016.7 |
| 20260901222954 | 79 | 218 | 8.0 | 9.0 | 0.00 | 0.02 | 0.02 | 92 | 1016.8 |
| 20260901222451 | 78 | 220 | 7.0 | 10.0 | 0.00 | 0.02 | 0.02 | 91 | 1017.0 |
| 20260901221946 | 78 | 222 | 4.0 | 5.0 | 0.00 | 0.02 | 0.02 | 92 | 1016.8 |
| 20260901221443 | 78 | 234 | 5.0 | 6.0 | 0.00 | 0.02 | 0.02 | 91 | 1016.9 |
| 20260901220943 | 78 | 223 | 6.0 | 8.0 | 0.00 | 0.02 | 0.02 | 91 | 1016.8 |
| 20260901220442 | 78 | 215 | 5.0 | 6.0 | 0.00 | 0.02 | 0.02 | 91 | 1016.6 |
| 20260901215940 | 78 | 216 | 3.0 | 5.0 | 0.00 | 0.02 | 0.02 | 91 | 1016.9 |
| 20260901215439 | 77 | 216 | 3.0 | 5.0 | 0.00 | 0.02 | 0.02 | 92 | 1016.7 |
| 20260901214938 | 77 | 238 | 3.0 | 5.0 | 0.00 | 0.02 | 0.02 | 91 | 1016.7 |
| 20260901214437 | 77 | 219 | 3.0 | 5.0 | 0.00 | 0.02 | 0.02 | 91 | 1016.2 |
| 20260901213932 | 78 | 205 | 3.0 | 5.0 | 0.00 | 0.02 | 0.02 | 89 | 1016.3 |
| 20260901213427 | 78 | 233 | 2.0 | 5.0 | 0.00 | 0.02 | 0.02 | 90 | 1016.8 |
| 20260901212926 | 78 | 248 | 4.0 | 9.0 | 0.00 | 0.02 | 0.02 | 88 | 1016.8 |
| 20260901212421 | 78 | 232 | 7.0 | 9.0 | 0.00 | 0.02 | 0.02 | 85 | 1017.0 |
| 20260901211918 | 78 | 243 | 7.0 | 10.0 | 0.00 | 0.02 | 0.02 | 85 | 1017.1 |
| 20260901211413 | 79 | 225 | 6.0 | 10.0 | 0.00 | 0.02 | 0.02 | 84 | 1017.4 |
| 20260901210909 | 80 | 216 | 8.0 | 11.0 | 0.00 | 0.02 | 0.02 | 82 | 1017.5 |
| 20260901210404 | 80 | 237 | 8.0 | 11.0 | 0.00 | 0.02 | 0.02 | 84 | 1017.3 |
| 20260901205901 | 80 | 218 | 8.0 | 13.0 | 0.00 | 0.02 | 0.02 | 85 | 1017.5 |
| 20260901205355 | 80 | 237 | 7.0 | 9.0 | 0.00 | 0.02 | 0.02 | 87 | 1017.7 |
| 20260901204850 | 81 | 235 | 6.0 | 9.0 | 0.00 | 0.02 | 0.02 | 86 | 1017.5 |
| 20260901204347 | 81 | 243 | 4.0 | 7.0 | 0.00 | 0.02 | 0.02 | 87 | 1017.6 |
| 20260901203847 | 81 | 218 | 6.0 | 7.0 | 0.00 | 0.02 | 0.02 | 85 | 1017.5 |
| 20260901203341 | 81 | 214 | 5.0 | 7.0 | 0.00 | 0.02 | 0.02 | 85 | 1017.3 |
| 20260901202836 | 81 | 222 | 4.0 | 6.0 | 0.00 | 0.02 | 0.02 | 86 | 1017.3 |
| 20260901202331 | 81 | 252 | 4.0 | 6.0 | 0.00 | 0.02 | 0.02 | 86 | 1017.5 |
| 20260901201827 | 81 | 253 | 3.0 | 5.0 | 0.00 | 0.02 | 0.02 | 86 | 1017.6 |
| 20260901201326 | 81 | 255 | 5.0 | 6.0 | 0.00 | 0.02 | 0.02 | 85 | 1017.4 |
| 20260901200820 | 81 | 245 | 2.0 | 5.0 | 0.00 | 0.02 | 0.02 | 85 | 1017.2 |
| 20260901200316 | 81 | 235 | 3.0 | 6.0 | 0.00 | 0.02 | 0.02 | 85 | 1017.6 |
| 20260901195814 | 81 | 253 | 5.0 | 6.0 | 0.00 | 0.02 | 0.02 | 83 | 1017.6 |
| 20260901195307 | 81 | 225 | 4.0 | 5.0 | 0.00 | 0.02 | 0.02 | 83 | 1017.4 |
| 20260901194803 | 81 | 215 | 5.0 | 7.0 | 0.00 | 0.02 | 0.02 | 83 | 1017.3 |
| 20260901194257 | 81 | 232 | 5.0 | 7.0 | 0.00 | 0.02 | 0.02 | 82 | 1017.5 |
| 20260901193754 | 81 | 222 | 8.0 | 11.0 | 0.00 | 0.02 | 0.02 | 81 | 1017.4 |
| 20260901193252 | 82 | 227 | 5.0 | 9.0 | 0.00 | 0.02 | 0.02 | 80 | 1017.5 |
| 20260901192747 | 82 | 247 | 7.0 | 9.0 | 0.00 | 0.02 | 0.02 | 79 | 1017.2 |
| 20260901192243 | 83 | 216 | 10.0 | 16.0 | 0.00 | 0.02 | 0.02 | 79 | 1017.4 |
| 20260901191738 | 83 | 211 | 7.0 | 9.0 | 0.00 | 0.02 | 0.02 | 80 | 1017.6 |
| 20260901191235 | 83 | 236 | 8.0 | 10.0 | 0.00 | 0.02 | 0.02 | 79 | 1017.5 |
| 20260901190730 | 84 | 231 | 9.0 | 11.0 | 0.00 | 0.02 | 0.02 | 79 | 1017.6 |
| 20260901190230 | 85 | 219 | 9.0 | 13.0 | 0.00 | 0.02 | 0.02 | 76 | 1017.5 |
| 20260901185728 | 84 | 236 | 8.0 | 10.0 | 0.00 | 0.02 | 0.02 | 77 | 1017.5 |
| 20260901185227 | 84 | 251 | 9.0 | 11.0 | 0.00 | 0.02 | 0.02 | 76 | 1017.5 |
| 20260901184723 | 85 | 215 | 7.0 | 9.0 | 0.00 | 0.02 | 0.02 | 77 | 1017.3 |
| 20260901184218 | 85 | 245 | 11.0 | 13.0 | 0.00 | 0.02 | 0.02 | 75 | 1017.3 |
| 20260901183714 | 85 | 248 | 10.0 | 13.0 | 0.00 | 0.02 | 0.02 | 77 | 1017.4 |
| 20260901183213 | 85 | 247 | 9.0 | 13.0 | 0.00 | 0.02 | 0.02 | 77 | 1017.3 |
| 20260901182710 | 85 | 256 | 7.0 | 10.0 | 0.00 | 0.02 | 0.02 | 77 | 1017.2 |
| 20260901182208 | 86 | 244 | 8.0 | 13.0 | 0.00 | 0.02 | 0.02 | 74 | 1016.8 |
| 20260901181704 | 86 | 219 | 11.0 | 18.0 | 0.00 | 0.02 | 0.02 | 74 | 1016.9 |
| 20260901181158 | 85 | 242 | 7.0 | 8.0 | 0.00 | 0.02 | 0.02 | 77 | 1016.6 |
| 20260901180657 | 85 | 260 | 10.0 | 11.0 | 0.00 | 0.02 | 0.02 | 77 | 1017.1 |
| 20260901180151 | 84 | 226 | 8.0 | 10.0 | 0.00 | 0.02 | 0.02 | 78 | 1016.9 |
| 20260901175650 | 84 | 237 | 8.0 | 13.0 | 0.00 | 0.02 | 0.02 | 79 | 1016.8 |
| 20260901175145 | 85 | 243 | 7.0 | 14.0 | 0.00 | 0.02 | 0.02 | 78 | 1017.0 |
| 20260901174640 | 84 | 248 | 7.0 | 13.0 | 0.00 | 0.02 | 0.02 | 79 | 1016.9 |
| 20260901174136 | 84 | 224 | 8.0 | 9.0 | 0.00 | 0.02 | 0.02 | 80 | 1016.9 |
| 20260901173631 | 84 | 232 | 6.0 | 13.0 | 0.00 | 0.02 | 0.02 | 80 | 1017.1 |
| 20260901173126 | 84 | 218 | 6.0 | 10.0 | 0.00 | 0.02 | 0.02 | 80 | 1017.0 |
| 20260901172622 | 84 | 232 | 11.0 | 15.0 | 0.00 | 0.02 | 0.02 | 78 | 1016.8 |
| 20260901172120 | 85 | 249 | 9.0 | 13.0 | 0.00 | 0.02 | 0.02 | 78 | 1016.7 |
| 20260901171620 | 84 | 230 | 9.0 | 15.0 | 0.00 | 0.02 | 0.02 | 79 | 1016.9 |